{"data":{"norad_id":38254,"epoch":"2026-05-25T01:57:10.295424Z","epoch_age_seconds":78668,"freshness":"FRESH","line1":"1 38254U 12019A   26145.08136916 -.00000137  00000+0  00000+0 0  9997","line2":"2 38254   6.5981  57.6556 0002430 356.7893 201.0582  1.00271430  6751","mean_motion":1.0027143,"eccentricity":0.000243,"inclination_deg":6.5981,"raan_deg":57.6556,"arg_perigee_deg":356.7893,"mean_anomaly_deg":201.0582,"bstar":0,"rev_number":675,"period_min":1436.101988373,"perigee_km":35776.448426821,"apogee_km":35796.940534921,"semimajor_km":42164.831480871,"source":"CELESTRAK","updated_at":"2026-05-25T13:38:13.910201Z"}}